| time (UTC) | temp C | wind direction | speed KPH | gust KPH | rain 1hr cm | rain 24hr cm | rain mn cm | humidity % | barometer mb |
| 20260504004105 | 12 | 355 | 1.6 | 3.2 | 0.00 | 0.00 | 0.00 | 44 | 1012.5 |
| 20260504003606 | 12 | 355 | 1.6 | 3.2 | 0.00 | 0.00 | 0.00 | 42 | 1012.5 |
| 20260504003105 | 12 | 339 | 1.6 | 4.8 | 0.00 | 0.00 | 0.00 | 42 | 1012.4 |
| 20260504002606 | 12 | 308 | 3.2 | 11.3 | 0.00 | 0.00 | 0.00 | 42 | 1012.3 |
| 20260504002105 | 12 | 354 | 4.8 | 8.0 | 0.00 | 0.00 | 0.00 | 41 | 1012.2 |
| 20260504001605 | 13 | 309 | 1.6 | 4.8 | 0.00 | 0.00 | 0.00 | 42 | 1012.1 |
| 20260504001105 | 13 | 349 | 0.0 | 3.2 | 0.00 | 0.00 | 0.00 | 40 | 1012.1 |
| 20260504000605 | 13 | 350 | 3.2 | 9.7 | 0.00 | 0.00 | 0.00 | 39 | 1012.0 |
| 20260504000105 | 13 | 356 | 1.6 | 4.8 | 0.00 | 0.00 | 0.00 | 39 | 1011.9 |
| 20260503235605 | 13 | 331 | 4.8 | 8.0 | 0.00 | 0.00 | 0.00 | 38 | 1011.9 |
| 20260503234104 | 13 | 309 | 3.2 | 9.7 | 0.00 | 0.00 | 0.00 | 38 | 1011.6 |
| 20260503233605 | 13 | 355 | 1.6 | 3.2 | 0.00 | 0.00 | 0.00 | 38 | 1011.4 |
| 20260503233105 | 13 | 354 | 3.2 | 4.8 | 0.00 | 0.00 | 0.00 | 38 | 1011.5 |
| 20260503232605 | 13 | 350 | 3.2 | 4.8 | 0.00 | 0.00 | 0.00 | 38 | 1011.4 |
| 20260503231604 | 14 | 3 | 3.2 | 11.3 | 0.00 | 0.00 | 0.00 | 37 | 1011.3 |
| 20260503231105 | 14 | 351 | 1.6 | 11.3 | 0.00 | 0.00 | 0.00 | 39 | 1011.2 |
| 20260503230605 | 14 | 348 | 3.2 | 9.7 | 0.00 | 0.00 | 0.00 | 37 | 1011.2 |
| 20260503230104 | 14 | 323 | 1.6 | 9.7 | 0.00 | 0.00 | 0.00 | 37 | 1011.2 |
| 20260503225604 | 14 | 45 | 4.8 | 11.3 | 0.00 | 0.00 | 0.00 | 35 | 1011.1 |
| 20260503225104 | 14 | 20 | 3.2 | 4.8 | 0.00 | 0.00 | 0.00 | 35 | 1011.1 |
| 20260503224106 | 14 | 8 | 8.0 | 16.1 | 0.00 | 0.00 | 0.00 | 35 | 1011.1 |
| 20260503223604 | 14 | 341 | 8.0 | 16.1 | 0.00 | 0.00 | 0.00 | 34 | 1011.1 |
| 20260503223104 | 14 | 0 | 8.0 | 24.1 | 0.00 | 0.00 | 0.00 | 34 | 1011.1 |
| 20260503222605 | 14 | 352 | 11.3 | 19.3 | 0.00 | 0.00 | 0.00 | 33 | 1011.1 |
| 20260503222104 | 15 | 328 | 3.2 | 16.1 | 0.00 | 0.00 | 0.00 | 33 | 1011.0 |
| 20260503221604 | 15 | 332 | 3.2 | 16.1 | 0.00 | 0.00 | 0.00 | 33 | 1010.9 |
| 20260503220605 | 15 | 3 | 6.4 | 16.1 | 0.00 | 0.00 | 0.00 | 32 | 1011.0 |
| 20260503220105 | 15 | 344 | 4.8 | 19.3 | 0.00 | 0.00 | 0.00 | 32 | 1011.0 |
| 20260503215605 | 15 | 29 | 4.8 | 24.1 | 0.00 | 0.00 | 0.00 | 31 | 1011.0 |
| 20260503215104 | 15 | 6 | 14.5 | 25.7 | 0.00 | 0.00 | 0.00 | 30 | 1010.9 |
| 20260503214605 | 15 | 341 | 9.7 | 19.3 | 0.00 | 0.00 | 0.00 | 30 | 1010.9 |
| 20260503214105 | 15 | 336 | 4.8 | 12.9 | 0.00 | 0.00 | 0.00 | 30 | 1010.9 |
| 20260503213605 | 15 | 357 | 9.7 | 24.1 | 0.00 | 0.00 | 0.00 | 31 | 1010.9 |
| 20260503213105 | 15 | 327 | 11.3 | 22.5 | 0.00 | 0.00 | 0.00 | 30 | 1010.9 |
| 20260503212605 | 15 | 345 | 9.7 | 27.4 | 0.00 | 0.00 | 0.00 | 29 | 1010.8 |
| 20260503212106 | 15 | 296 | 11.3 | 33.8 | 0.00 | 0.00 | 0.00 | 29 | 1010.7 |
| 20260503211604 | 15 | 300 | 4.8 | 19.3 | 0.00 | 0.00 | 0.00 | 29 | 1010.8 |
| 20260503211104 | 15 | 333 | 8.0 | 20.9 | 0.00 | 0.00 | 0.00 | 30 | 1010.9 |
| 20260503210114 | 15 | 290 | 9.7 | 25.7 | 0.00 | 0.00 | 0.00 | 30 | 1010.9 |
| 20260503205105 | 16 | 338 | 8.0 | 16.1 | 0.00 | 0.00 | 0.00 | 31 | 1011.0 |
| 20260503204604 | 15 | 24 | 6.4 | 25.7 | 0.00 | 0.00 | 0.00 | 31 | 1010.9 |
| 20260503204104 | 15 | 13 | 9.7 | 19.3 | 0.00 | 0.00 | 0.00 | 32 | 1010.9 |
| 20260503203604 | 15 | 18 | 14.5 | 29.0 | 0.00 | 0.00 | 0.00 | 31 | 1010.9 |
| 20260503203105 | 15 | 340 | 14.5 | 25.7 | 0.00 | 0.00 | 0.00 | 31 | 1011.1 |
| 20260503202605 | 15 | 6 | 8.0 | 22.5 | 0.00 | 0.00 | 0.00 | 34 | 1010.9 |
| 20260503200605 | 15 | 346 | 8.0 | 16.1 | 0.00 | 0.00 | 0.00 | 33 | 1011.0 |
| 20260503200104 | 15 | 357 | 8.0 | 24.1 | 0.00 | 0.00 | 0.00 | 34 | 1011.1 |
| 20260503195604 | 15 | 42 | 4.8 | 19.3 | 0.00 | 0.00 | 0.00 | 34 | 1011.0 |
| 20260503195104 | 15 | 340 | 11.3 | 29.0 | 0.00 | 0.00 | 0.00 | 34 | 1011.2 |
| 20260503194605 | 15 | 336 | 9.7 | 19.3 | 0.00 | 0.00 | 0.00 | 34 | 1011.2 |
| 20260503194105 | 15 | 10 | 4.8 | 14.5 | 0.00 | 0.00 | 0.00 | 37 | 1011.2 |
| 20260503193604 | 15 | 352 | 4.8 | 22.5 | 0.00 | 0.00 | 0.00 | 36 | 1011.3 |
| 20260503193104 | 15 | 341 | 11.3 | 27.4 | 0.00 | 0.00 | 0.00 | 34 | 1011.3 |
| 20260503192605 | 15 | 317 | 4.8 | 19.3 | 0.00 | 0.00 | 0.00 | 35 | 1011.4 |
| 20260503192104 | 14 | 332 | 8.0 | 33.8 | 0.00 | 0.00 | 0.00 | 35 | 1011.6 |
| 20260503191104 | 15 | 326 | 11.3 | 25.7 | 0.00 | 0.00 | 0.00 | 37 | 1011.6 |
| 20260503190604 | 15 | 16 | 11.3 | 25.7 | 0.00 | 0.00 | 0.00 | 36 | 1011.8 |
| 20260503190105 | 14 | 10 | 11.3 | 25.7 | 0.00 | 0.00 | 0.00 | 40 | 1011.7 |
| 20260503185605 | 13 | 5 | 11.3 | 24.1 | 0.00 | 0.00 | 0.00 | 38 | 1011.8 |
| 20260503185105 | 13 | 23 | 14.5 | 33.8 | 0.00 | 0.00 | 0.00 | 38 | 1011.9 |
| 20260503184606 | 12 | 350 | 4.8 | 16.1 | 0.00 | 0.00 | 0.00 | 39 | 1012.0 |
| 20260503184105 | 12 | 5 | 9.7 | 20.9 | 0.00 | 0.00 | 0.00 | 39 | 1012.0 |
| 20260503183606 | 12 | 50 | 8.0 | 24.1 | 0.00 | 0.00 | 0.00 | 39 | 1012.0 |
| 20260503183105 | 12 | 37 | 8.0 | 25.7 | 0.00 | 0.00 | 0.00 | 40 | 1012.2 |
| 20260503182605 | 12 | 35 | 11.3 | 32.2 | 0.00 | 0.00 | 0.00 | 39 | 1012.3 |
| 20260503181605 | 12 | 47 | 6.4 | 27.4 | 0.00 | 0.00 | 0.00 | 41 | 1012.4 |
| 20260503181105 | 12 | 5 | 11.3 | 24.1 | 0.00 | 0.00 | 0.00 | 39 | 1012.3 |
| 20260503180604 | 12 | 32 | 8.0 | 29.0 | 0.00 | 0.00 | 0.00 | 43 | 1012.4 |
| 20260503180105 | 12 | 51 | 14.5 | 25.7 | 0.00 | 0.00 | 0.00 | 40 | 1012.4 |
| 20260503175104 | 13 | 355 | 8.0 | 19.3 | 0.00 | 0.00 | 0.00 | 40 | 1012.5 |
| 20260503174105 | 12 | 324 | 6.4 | 29.0 | 0.00 | 0.00 | 0.00 | 42 | 1012.6 |
| 20260503173604 | 12 | 338 | 4.8 | 19.3 | 0.00 | 0.00 | 0.00 | 43 | 1012.7 |
| 20260503173105 | 12 | 22 | 11.3 | 20.9 | 0.00 | 0.00 | 0.00 | 43 | 1012.7 |
| 20260503172604 | 11 | 23 | 4.8 | 19.3 | 0.00 | 0.00 | 0.00 | 44 | 1012.7 |
| 20260503172105 | 12 | 333 | 8.0 | 20.9 | 0.00 | 0.00 | 0.00 | 43 | 1012.8 |
| 20260503171605 | 12 | 37 | 4.8 | 19.3 | 0.00 | 0.00 | 0.00 | 45 | 1012.8 |
| 20260503171104 | 11 | 62 | 8.0 | 14.5 | 0.00 | 0.00 | 0.00 | 47 | 1012.8 |
| 20260503170104 | 11 | 337 | 9.7 | 20.9 | 0.00 | 0.00 | 0.00 | 44 | 1012.9 |
| 20260503160105 | 11 | 357 | 6.4 | 14.5 | 0.00 | 0.00 | 0.00 | 44 | 1012.8 |
| 20260503150618 | 10 | 21 | 9.7 | 19.3 | 0.00 | 0.00 | 0.00 | 41 | 1012.9 |
| 20260503150106 | 10 | 331 | 8.0 | 22.5 | 0.00 | 0.00 | 0.00 | 46 | 1013.0 |
| 20260503140105 | 10 | 11 | 3.2 | 16.1 | 0.00 | 0.00 | 0.00 | 52 | 1013.0 |
| 20260503131105 | 9 | 3 | 8.0 | 22.5 | 0.00 | 0.00 | 0.00 | 55 | 1013.3 |
| 20260503130604 | 9 | 6 | 6.4 | 19.3 | 0.00 | 0.00 | 0.00 | 55 | 1013.2 |
| 20260503130104 | 10 | 332 | 4.8 | 19.3 | 0.00 | 0.00 | 0.00 | 54 | 1013.2 |
| 20260503110604 | 5 | 347 | 4.8 | 14.5 | 0.00 | 0.00 | 0.00 | 70 | 1013.1 |
| 20260503110104 | 5 | 331 | 4.8 | 11.3 | 0.00 | 0.00 | 0.00 | 70 | 1013.0 |
| 20260503100104 | 5 | 359 | 0.0 | 0.0 | 0.00 | 0.00 | 0.00 | 72 | 1012.5 |
| 20260503090105 | 6 | 357 | 1.6 | 3.2 | 0.00 | 0.05 | 0.00 | 65 | 1012.3 |
| 20260503081605 | 6 | 92 | 3.2 | 9.7 | 0.00 | 0.18 | 0.00 | 62 | 1012.4 |
| 20260503081104 | 6 | 35 | 3.2 | 8.0 | 0.00 | 0.20 | 0.00 | 63 | 1012.5 |
| 20260503080604 | 6 | 102 | 8.0 | 16.1 | 0.00 | 0.20 | 0.00 | 62 | 1012.4 |
| 20260503080104 | 6 | 51 | 4.8 | 11.3 | 0.00 | 0.20 | 0.00 | 64 | 1012.4 |
| 20260503072604 | 6 | 38 | 4.8 | 14.5 | 0.00 | 0.20 | 0.00 | 64 | 1012.5 |
| 20260503072105 | 6 | 38 | 9.7 | 16.1 | 0.00 | 0.20 | 0.00 | 64 | 1012.5 |
| 20260503071604 | 6 | 54 | 3.2 | 16.1 | 0.00 | 0.20 | 0.00 | 64 | 1012.5 |
| 20260503071104 | 6 | 23 | 4.8 | 19.3 | 0.00 | 0.20 | 0.00 | 64 | 1012.5 |
| 20260503070604 | 6 | 54 | 4.8 | 9.7 | 0.00 | 0.20 | 0.00 | 65 | 1012.5 |
| 20260503070105 | 6 | 71 | 4.8 | 19.3 | 0.00 | 0.20 | 0.00 | 66 | 1012.5 |
| 20260503060105 | 6 | 68 | 4.8 | 12.9 | 0.00 | 0.23 | 0.00 | 67 | 1012.7 |
| 20260503054604 | 6 | 62 | 3.2 | 9.7 | 0.00 | 0.25 | 0.00 | 66 | 1013.0 |
| 20260503054104 | 6 | 56 | 3.2 | 4.8 | 0.00 | 0.25 | 0.00 | 66 | 1013.0 |
| 20260503053104 | 6 | 66 | 3.2 | 8.0 | 0.00 | 0.25 | 0.00 | 65 | 1013.0 |
| 20260503051604 | 7 | 99 | 3.2 | 4.8 | 0.00 | 0.25 | 0.00 | 64 | 1013.1 |
| 20260503051104 | 7 | 90 | 3.2 | 4.8 | 0.00 | 0.25 | 0.00 | 63 | 1013.2 |
| 20260503050104 | 7 | 57 | 0.0 | 4.8 | 0.00 | 0.25 | 0.00 | 63 | 1013.4 |
| 20260503045604 | 7 | 53 | 3.2 | 9.7 | 0.00 | 0.25 | 0.00 | 62 | 1013.4 |
| 20260503045104 | 7 | 61 | 3.2 | 8.0 | 0.00 | 0.25 | 0.00 | 62 | 1013.3 |
| 20260503044605 | 7 | 96 | 3.2 | 11.3 | 0.00 | 0.25 | 0.00 | 62 | 1013.3 |
| 20260503044104 | 7 | 43 | 3.2 | 4.8 | 0.00 | 0.25 | 0.00 | 62 | 1013.3 |
| 20260503043605 | 7 | 43 | 4.8 | 9.7 | 0.00 | 0.25 | 0.00 | 61 | 1013.3 |
| 20260503042604 | 7 | 79 | 4.8 | 12.9 | 0.00 | 0.25 | 0.00 | 61 | 1013.5 |
| 20260503042105 | 7 | 49 | 3.2 | 14.5 | 0.00 | 0.25 | 0.00 | 61 | 1013.6 |
| 20260503041604 | 7 | 82 | 3.2 | 8.0 | 0.00 | 0.25 | 0.00 | 60 | 1013.6 |
| 20260503041104 | 7 | 89 | 3.2 | 4.8 | 0.00 | 0.25 | 0.00 | 60 | 1013.6 |
| 20260503040104 | 7 | 63 | 3.2 | 4.8 | 0.00 | 0.25 | 0.00 | 60 | 1013.5 |
| 20260503035605 | 7 | 66 | 3.2 | 4.8 | 0.00 | 0.25 | 0.25 | 59 | 1013.4 |
| 20260503035104 | 8 | 67 | 3.2 | 8.0 | 0.00 | 0.25 | 0.25 | 60 | 1013.5 |
| 20260503034604 | 8 | 50 | 3.2 | 8.0 | 0.00 | 0.25 | 0.25 | 59 | 1013.5 |
| 20260503034105 | 8 | 40 | 0.0 | 3.2 | 0.00 | 0.25 | 0.25 | 58 | 1013.5 |
| 20260503032604 | 8 | 59 | 4.8 | 12.9 | 0.00 | 0.25 | 0.25 | 56 | 1013.4 |
| 20260503031604 | 8 | 61 | 3.2 | 8.0 | 0.00 | 0.25 | 0.25 | 56 | 1013.4 |
| 20260503031104 | 8 | 50 | 4.8 | 8.0 | 0.00 | 0.25 | 0.25 | 56 | 1013.3 |
| 20260503025604 | 9 | 55 | 1.6 | 4.8 | 0.00 | 0.25 | 0.25 | 53 | 1013.4 |
| 20260503025105 | 9 | 56 | 1.6 | 4.8 | 0.00 | 0.25 | 0.25 | 52 | 1013.4 |
| 20260503023604 | 10 | 60 | 3.2 | 8.0 | 0.00 | 0.25 | 0.25 | 50 | 1013.4 |
| 20260503022604 | 10 | 62 | 6.4 | 12.9 | 0.00 | 0.25 | 0.25 | 52 | 1013.4 |
| 20260503020604 | 9 | 67 | 1.6 | 4.8 | 0.00 | 0.25 | 0.25 | 56 | 1013.6 |
| 20260503020105 | 9 | 64 | 0.0 | 0.0 | 0.00 | 0.25 | 0.25 | 58 | 1013.5 |
| 20260503015605 | 9 | 64 | 1.6 | 4.8 | 0.00 | 0.25 | 0.25 | 57 | 1013.5 |
| 20260503015104 | 10 | 64 | 0.0 | 3.2 | 0.00 | 0.25 | 0.25 | 58 | 1013.4 |
| 20260503014604 | 10 | 64 | 0.0 | 1.6 | 0.00 | 0.25 | 0.25 | 57 | 1013.4 |
| 20260503013604 | 10 | 64 | 0.0 | 1.6 | 0.00 | 0.25 | 0.25 | 55 | 1013.3 |
| 20260503013104 | 10 | 64 | 0.0 | 0.0 | 0.00 | 0.25 | 0.25 | 54 | 1013.3 |
| 20260503012105 | 10 | 64 | 0.0 | 4.8 | 0.00 | 0.25 | 0.25 | 53 | 1013.2 |
| 20260503011605 | 10 | 64 | 1.6 | 4.8 | 0.00 | 0.25 | 0.25 | 52 | 1013.0 |
| 20260503011104 | 10 | 72 | 1.6 | 4.8 | 0.00 | 0.25 | 0.25 | 53 | 1013.1 |
| 20260503010604 | 10 | 40 | 0.0 | 0.0 | 0.00 | 0.25 | 0.25 | 54 | 1013.0 |
| 20260503010104 | 11 | 40 | 0.0 | 0.0 | 0.00 | 0.25 | 0.25 | 52 | 1012.8 |
| 20260503005605 | 11 | 40 | 0.0 | 1.6 | 0.00 | 0.25 | 0.25 | 51 | 1012.8 |
| 20260503005105 | 11 | 40 | 1.6 | 8.0 | 0.00 | 0.25 | 0.25 | 46 | 1012.7 |